Powrót do katalogu

STARLINK-4634

AktywnyŁącznośćVLEO
NORAD 53967·PAYLOAD·🇺🇸 United States

Wystrzelony Oct 5, 2022 z Vandenberg Space Force Base

Loading…

Następne Przeloty (najbliższe 24 godziny)

TLE

ŚwieżeSource: CelesTrak SupGP

Epoka: Sep 14, 2026, 13:49 UTC

1 53967C 22125D   26257.57618056  .00003203  00000+0  94625-4 0  2576
2 53967  53.1579  89.2509 0001155  94.7960  42.4260 15.34391142    14

Śledź STARLINK-4634 w czasie rzeczywistym z AllMySat

Download on the App Store